Weather in Nova Paka

Czech Republic     50°29′15″N   15°30′44″E
temp.,
°C
wind,
m/s
gust,
m/s
humid.,
%
clouds,
%
prec.,
mm/h
press.,
hPa
HPBL,
m
8 march, mon
mon801:00−3wnw238847 0.0 1019117
04:00−3wnw249134 0.0 1019162
07:00−2wnw239167 0.1 1020206
10:00+2nnw126452 0.0 1021832
13:00+3se226370 0.4 1022826
16:00+1nne0268100 0.3 1022787
19:00−2ene127391 0.4 102343
22:00−3n116881 0.0 102421
9 march, tue
tue901:00−3ne116674 0.0 102421
04:00−3ene116642 0.0 102221
07:00−3e116371 0.0 102279
10:000se2250100 0.0 1022730
13:00+1sse2244100 0.0 10211139
16:00+1s1146100 0.0 10191092
19:00−1ene1158100 0.0 102021
22:00−2ene116093 0.0 102121
10 march, wed
wed1001:00−2e116295 0.0 102021
04:00−2e117180 0.0 101923
07:00−2e119390 0.2 102086
10:00+2sw127999 0.3 1020371
13:00+3w337497 0.3 1020732
16:00+3wnw268099 0.1 1019639
19:00−1w019295 0.1 101921
22:000se1299100 0.2 101975
11 march, thu
thu1101:000ese2499100 0.2 1016157
04:000se2594100 0.0 1013220
07:00+2s41199100 2.5 1011493
10:00+3ssw31198100 5.0 1008582
13:00+7sw41386100 5.1 1006872
16:00+9sw51482100 0.2 1004870
19:00+8wsw51589100 0.5 10041026
22:00+7wsw51489100 0.8 10051082
12 march, fri
fri1201:00+4wsw4139186 1.3 1007661
04:00+3wsw6148457 0.3 10081050
07:00+3w6168062 0.4 10101372
10:00+5w7126794 0.1 10121480
13:00+6w7116296 0.1 10121633
16:00+6w6106195 0.1 10121623
19:00+3wsw397776 0.1 1012243
22:00+1w128614 0.0 101322